Location: D�derode
(51.8092°N, 10.1065°E)
Time: 08:38:42
(UTC+00:00)

FENGYUN 1C DEB - Visible Passes

Search period start: 21 June 2021 00:00
Search period end: 01 July 2021 00:00
Orbit: 777 x 1085 km, 98.2° (Epoch: 20 June)

Date Brightness Start Highest point End Pass type
(mag) Time Alt. Az. Time Alt. Az. Time Alt. Az.
21 Jun ? 01:01:33 10° SW 01:05:27 18° W 01:09:35 10° NW visible
21 Jun ? 21:47:04 10° ESE 21:51:54 27° NE 21:57:03 10° N visible
21 Jun ? 23:29:39 21° S 23:33:43 75° WSW 23:40:05 10° NNW visible
22 Jun ? 01:14:03 10° WSW 01:17:21 15° W 01:20:48 10° NW visible
22 Jun ? 21:58:17 10° ESE 22:03:26 31° ENE 22:08:56 10° N visible
22 Jun ? 23:41:27 21° S 23:45:26 62° W 23:51:47 10° NNW visible
23 Jun ? 01:26:58 10° W 01:29:18 12° WNW 01:31:42 10° NW visible
23 Jun ? 20:33:29 10° NE 20:34:23 10° NE 20:35:17 10° NNE visible
23 Jun ? 22:09:34 10° SE 22:14:59 37° ENE 22:20:46 10° N visible
23 Jun ? 23:53:15 21° SSW 23:57:12 52° W 00:03:26 10° NNW visible
24 Jun ? 20:43:29 10° ENE 20:45:47 12° NE 20:48:07 10° NNE visible
24 Jun ? 22:21:22 12° SE 22:26:33 43° ENE 22:32:36 10° N visible
25 Jun ? 00:05:03 19° SSW 00:08:59 43° W 00:15:05 10° NNW visible
25 Jun ? 20:54:06 10° ENE 20:57:11 14° NE 21:00:22 10° NNE visible
25 Jun ? 22:33:10 14° SE 22:38:09 51° ENE 22:44:24 10° N visible
26 Jun ? 00:16:52 18° SSW 00:20:47 36° W 00:26:40 10° NNW visible
26 Jun ? 21:04:55 10° E 21:08:38 17° NE 21:12:27 10° N visible
26 Jun ? 22:44:58 17° SE 22:49:46 61° ENE 22:56:10 10° N visible
27 Jun ? 00:28:41 16° SW 00:32:37 30° W 00:38:13 10° NNW visible
27 Jun ? 21:15:52 10° E 21:20:05 19° NE 21:24:28 10° N visible
27 Jun ? 22:56:47 18° SSE 23:01:24 73° ENE 23:07:56 10° NNW visible
28 Jun ? 00:40:30 14° SW 00:44:28 25° W 00:49:43 10° NNW visible
28 Jun ? 21:26:54 10° E 21:31:33 22° NE 21:36:24 10° N visible
28 Jun ? 23:08:36 20° SSE 23:13:04 85° ENE 23:19:40 10° NNW visible
29 Jun ? 00:52:18 12° SW 00:56:21 21° W 01:01:09 10° NW visible
29 Jun ? 21:38:02 10° ESE 21:43:03 26° NE 21:48:18 10° N visible
29 Jun ? 23:20:26 21° S 23:24:46 81° WSW 23:31:23 10° NNW visible
30 Jun ? 01:04:13 10° WSW 01:08:15 18° W 01:12:28 10° NW visible
30 Jun ? 21:49:14 10° ESE 21:54:34 30° ENE 22:00:10 10° N visible
30 Jun ? 23:32:15 22° S 23:36:29 69° WSW 23:43:05 10° NNW visible
